Regional Weather Roundup
Issued by NWS Jackson, KY

Home | Current Version | Previous Version | Text Only | Print | Product List | Glossary Off
Versions: 1 2 3 4 5 6 7 8 9 10 11 12 13 14 15 16 17 18 19 20 21 22 23 24 25 26 27 28 29 30 31 32 33 34 35 36 37 38 39 40 41 42 43 44 45 46 47 48 49 50

000
ASUS43 KJKL 251911
RWRJKL

EAST KENTUCKY HOURLY WEATHER ROUNDUP
NATIONAL WEATHER SERVICE JACKSON KY
200 PM EST SUN JAN 25 2015

NOTE: "FAIR" INDICATES FEW OR NO CLOUDS BELOW 12,000 FEET WITH
NO SIGNIFICANT WEATHER AND/OR OBSTRUCTIONS TO VISIBILITY.

* THESE REPORTS ARE NOT UNDER NWS QUALITY CONTROL AND MAY NOT
  REPORT WEATHER SUCH AS PRECIPITATION AND FOG.

KYZ079-080-083-085-087-088-110-112-115-119-120-252000
...EASTERN KENTUCKY...

CITY           SKY/WX    TMP DP  RH WIND       PRES   REMARKS
JACKSON        CLOUDY    49  33  54 VRB6      29.70F
LONDON         CLOUDY    51  29  42 S10       29.69F
SOMERSET*      CLOUDY    50  32  50 S7        29.69F
MONTICELLO*    CLOUDY    54  34  46 S15       29.69F
MIDDLESBORO*   MOSUNNY   51  32  48 S15G25    29.73F
HARLAN APT*    MOCLDY    50  30  46 SW7       29.73F
HAZARD APT*    CLEAR     50  32  50 S5        29.71F
BLACK MTN*       N/A     39  30  70 S5          N/A
PIKEVILLE APT* SUNNY     46  32  57 S8        29.71F
BIG SANDY*     CLOUDY    48  34  58 S8        29.71F
MOREHEAD APT*  CLOUDY    43  32  65 VRB6      29.71F
$$

KYZ035-036-041-042-044-050-067-078-099-252000
...CENTRAL KENTUCKY...

CITY           SKY/WX    TMP DP  RH WIND       PRES   REMARKS
MT STERLING*   CLOUDY    45  36  70 S8        29.69F
FLEMING/MASON* DRIZZLE   38  32  79 SE3       29.70F
DANVILLE*      CLOUDY    46  36  66 SW12      29.67F
RICHMOND*      CLOUDY    48  34  57 S7        29.67F
LEXINGTON      CLOUDY    40  33  76 SE6       29.67F
FRANKFORT      CLOUDY    42  33  70 E5        29.66F
$$

KYZ091>093-OHZ055-061-077-WVZ005-015-034-035-042-252000
...SOUTHERN OHIO/WEST VIRGINIA...

CITY           SKY/WX    TMP DP  RH WIND       PRES   REMARKS
COVINGTON      LGT RAIN  40  34  79 SE7       29.67F
COLUMBUS       LGT SNOW  35  33  92 E6        29.72F VSB 1   WCI  30
DAYTON         LGT RAIN  38  36  92 E8        29.69S FOG     WCI  32
WILMINGTON     CLOUDY    38  34  85 E5        29.69F WCI  34
HUNTINGTON     CLOUDY    44  35  70 SE3       29.70F
CHARLESTON     CLOUDY    46  33  60 SE6       29.73F
PINEVILLE*     CLOUDY    50  36  59 MISG      29.79F
BECKLEY        CLOUDY    43  31  62 S8        29.74F
BLUEFIELD      CLOUDY    45  31  58 VRB5      29.74F
$$

VAZ002-007-008-TNZ017-027-036-066-071-252000
...SOUTHWEST VIRGINIA/EAST TENNESSEE...

CITY           SKY/WX    TMP DP  RH WIND       PRES   REMARKS
WISE*          PTSUNNY   45  30  57 S6        29.73F
JONESVILLE*    MOCLDY    48  32  53 SW7       29.77F
ABINGDON*      MOSUNNY   51  29  43 CALM      29.74F
BRISTOL        PTSUNNY   52  32  46 E3        29.75F
KNOXVILLE      PTSUNNY   53  34  48 SW18G30   29.74F
OAK RIDGE      MOSUNNY   53  33  46 VRB7G20   29.75F
CROSSVILLE     MOSUNNY   49  32  52 S9G16     29.69F
NASHVILLE      CLOUDY    56  36  47 SW16G22   29.65F
$$

...KEY TO REMARKS...
VSB - VISIBILITY IN MILES
WCI - WIND CHILL INDEX
HX  - HEAT INDEX

$$



USA.gov is the U.S. government's official web portal to all federal, state and local government web resources and services.